Total_Precipitation_Accumulation
2.05 2.08 1.61 1.01 0.81 0.68 0.64 0.67 0.60 0.52 0.48 0.66 0.71 0.67 0.69 0.66 0.65 0.67 0.70 0.74 0.88 1.08 1.23 1.45 1.68 2.07 2.32 2.63 2.98 3.11 3.40 3.63 3.82 4.04 4.09 3.86 3.59 3.38 3.21 3.17 3.08 2.88 2.72 2.65
1.97 1.58 0.89 0.71 0.73 0.75 0.77 0.83 0.66 0.56 0.50 0.64 0.67 0.62 0.67 0.74 0.74 0.67 0.64 0.68 0.77 0.95 1.09 1.26 1.51 1.87 2.07 2.27 2.51 2.73 2.98 3.27 3.49 3.61 3.70 3.79 3.80 3.56 3.28 3.19 3.20 3.14 3.03 2.88
1.41 0.94 0.66 0.77 0.87 0.95 0.86 0.81 0.69 0.66 0.61 0.70 0.72 0.74 0.67 0.71 0.73 0.73 0.70 0.70 0.77 0.93 1.00 1.12 1.32 1.70 1.91 2.01 2.20 2.41 2.67 2.86 3.00 3.37 3.69 3.78 4.02 3.95 3.51 3.13 2.95 3.07 3.17 3.15
1.17 0.69 0.72 0.89 0.85 0.90 0.95 0.60 0.62 0.70 0.96 1.07 0.83 1.03 0.76 0.69 0.69 0.75 0.79 0.80 0.86 0.94 1.01 1.10 1.19 1.42 1.65 1.73 1.92 2.19 2.49 2.73 2.80 3.10 3.37 3.40 3.36 3.43 3.21 3.00 2.96 3.07 3.14 3.20
1.24 0.79 0.81 0.97 0.73 0.76 0.79 0.58 0.70 0.82 1.03 1.15 0.81 0.96 0.86 0.64 0.75 0.81 0.83 0.88 0.95 0.92 0.95 1.08 1.16 1.24 1.42 1.54 1.64 1.89 2.26 2.57 2.73 2.85 3.05 3.25 3.25 3.24 3.30 3.24 3.12 3.03 2.98 3.05
0.92 0.81 0.91 0.84 0.62 0.71 0.80 0.92 1.06 1.13 1.51 1.62 0.75 0.83 0.91 0.81 0.87 0.81 0.77 0.85 0.93 0.88 0.93 1.01 1.05 1.10 1.29 1.38 1.41 1.61 1.89 2.31 2.69 2.82 2.87 2.97 3.02 2.97 3.06 3.19 3.16 3.10 2.97 2.89
1.11 0.91 0.84 0.84 1.01 1.02 1.25 1.87 2.41 2.33 2.19 1.25 0.47 0.67 0.95 0.84 0.77 0.79 0.78 0.78 0.85 0.88 0.92 0.96 1.00 1.10 1.18 1.29 1.31 1.41 1.56 1.90 2.33 2.58 2.63 2.69 2.77 2.78 2.75 2.90 3.06 3.07 2.94 2.78
1.22 1.08 0.76 0.87 1.19 1.29 1.23 1.64 1.95 1.61 1.06 0.60 0.43 0.67 0.88 0.76 0.67 0.64 0.60 0.61 0.71 0.79 0.83 0.86 0.89 0.95 0.99 1.05 1.17 1.28 1.37 1.54 1.80 2.08 2.27 2.42 2.53 2.57 2.47 2.47 2.72 2.85 2.77 2.68
1.08 0.87 0.52 0.62 0.78 0.97 1.22 1.32 1.17 1.47 1.03 0.72 0.57 0.61 0.64 0.51 0.52 0.53 0.51 0.52 0.62 0.65 0.69 0.72 0.74 0.78 0.80 0.84 0.95 1.09 1.14 1.22 1.40 1.66 1.91 2.13 2.25 2.38 2.41 2.31 2.39 2.65 2.69 2.56
1.09 1.11 0.61 0.64 0.91 1.05 1.11 1.11 1.36 2.08 1.72 1.02 0.59 0.53 0.66 0.57 0.54 0.57 0.54 0.51 0.54 0.55 0.59 0.63 0.66 0.71 0.75 0.78 0.75 0.80 0.94 1.09 1.22 1.34 1.61 1.83 2.00 2.13 2.23 2.29 2.28 2.34 2.43 2.43
0.96 1.33 0.92 0.87 1.16 1.12 1.13 1.38 1.58 1.71 1.46 1.29 0.88 0.74 0.69 0.60 0.58 0.59 0.57 0.52 0.52 0.52 0.58 0.61 0.62 0.66 0.74 0.78 0.71 0.68 0.79 0.94 1.05 1.12 1.32 1.50 1.66 1.85 1.99 2.08 2.11 2.12 2.17 2.25
0.94 1.51 1.19 0.79 0.68 0.73 0.96 1.13 1.40 1.94 1.53 1.18 1.01 0.82 0.60 0.52 0.51 0.54 0.57 0.56 0.54 0.57 0.63 0.62 0.61 0.63 0.71 0.79 0.78 0.72 0.76 0.82 0.94 1.02 1.12 1.33 1.42 1.57 1.75 1.88 1.91 1.92 1.96 2.00
1.34 1.86 1.66 1.16 0.99 0.97 1.12 1.01 1.08 1.56 1.95 1.54 1.24 0.85 0.53 0.42 0.40 0.45 0.52 0.55 0.55 0.58 0.65 0.64 0.64 0.65 0.70 0.78 0.84 0.76 0.76 0.78 0.85 0.97 1.01 1.16 1.30 1.39 1.48 1.61 1.71 1.76 1.80 1.88
1.64 1.88 1.51 1.26 1.17 1.18 1.11 0.89 1.02 1.85 2.39 1.45 0.86 0.60 0.44 0.42 0.48 0.49 0.51 0.55 0.59 0.61 0.64 0.66 0.71 0.73 0.76 0.78 0.84 0.79 0.79 0.78 0.78 0.90 0.98 1.01 1.17 1.29 1.35 1.41 1.50 1.57 1.59 1.68
1.37 1.71 1.09 0.72 0.59 0.77 0.83 0.82 0.95 1.40 1.47 1.41 0.85 0.56 0.52 0.53 0.60 0.59 0.55 0.52 0.54 0.56 0.59 0.62 0.66 0.73 0.76 0.79 0.85 0.85 0.83 0.83 0.78 0.84 0.94 0.99 1.05 1.13 1.25 1.36 1.44 1.52 1.54 1.57
1.14 1.46 1.12 0.80 0.50 0.59 0.69 0.66 0.71 0.85 0.94 0.97 0.73 0.69 0.60 0.55 0.51 0.50 0.49 0.48 0.51 0.54 0.57 0.58 0.57 0.63 0.67 0.77 0.86 0.92 0.91 0.88 0.84 0.82 0.87 0.94 1.02 1.06 1.12 1.21 1.34 1.43 1.53 1.58
1.07 1.33 1.50 1.04 0.57 0.73 0.90 0.80 0.78 0.80 0.82 0.85 0.90 0.82 0.66 0.59 0.55 0.55 0.52 0.48 0.49 0.50 0.50 0.52 0.54 0.60 0.63 0.70 0.80 0.89 0.93 0.90 0.88 0.86 0.86 0.90 0.98 1.08 1.13 1.15 1.24 1.41 1.53 1.69
0.79 1.19 1.74 1.30 0.86 1.08 0.86 0.65 0.66 0.71 0.76 0.79 0.78 0.68 0.63 0.60 0.59 0.58 0.53 0.49 0.46 0.46 0.46 0.46 0.49 0.50 0.53 0.58 0.68 0.80 0.85 0.88 0.89 0.89 0.92 0.94 0.97 1.09 1.20 1.23 1.28 1.39 1.51 1.66
0.47 1.03 1.74 1.53 1.12 0.73 0.48 0.45 0.62 0.72 0.76 0.73 0.61 0.51 0.48 0.48 0.49 0.51 0.47 0.45 0.47 0.49 0.51 0.50 0.50 0.52 0.51 0.55 0.63 0.75 0.82 0.84 0.87 0.91 0.95 1.00 1.03 1.15 1.27 1.29 1.32 1.38 1.46 1.54
0.43 0.86 1.68 1.60 1.33 0.74 0.50 0.31 0.36 0.58 0.83 0.61 0.54 0.53 0.52 0.52 0.62 0.55 0.46 0.44 0.46 0.45 0.47 0.52 0.54 0.52 0.55 0.59 0.63 0.73 0.84 0.93 0.99 1.01 1.05 1.09 1.18 1.31 1.37 1.37 1.36 1.34 1.36 1.37
0.63 1.14 1.51 1.30 1.24 0.68 0.47 0.29 0.30 0.80 0.96 0.53 0.52 0.55 0.58 0.64 0.67 0.57 0.45 0.41 0.46 0.48 0.48 0.50 0.54 0.57 0.60 0.64 0.65 0.69 0.78 0.95 1.06 1.10 1.12 1.14 1.21 1.30 1.36 1.34 1.29 1.27 1.24 1.23
0.59 0.85 0.95 1.02 1.32 0.94 0.48 0.38 0.71 0.92 0.59 0.51 0.52 0.55 0.58 0.57 0.49 0.42 0.42 0.42 0.41 0.43 0.45 0.50 0.57 0.61 0.61 0.67 0.75 0.75 0.81 0.90 0.97 1.03 1.04 1.05 1.08 1.14 1.22 1.26 1.23 1.19 1.20 1.19
0.63 0.81 0.88 0.93 1.01 0.85 0.65 0.71 0.76 0.65 0.59 0.51 0.51 0.51 0.51 0.49 0.47 0.41 0.39 0.39 0.41 0.43 0.45 0.52 0.62 0.67 0.68 0.69 0.76 0.82 0.79 0.80 0.85 0.92 0.97 0.96 0.93 0.96 1.03 1.11 1.15 1.17 1.19 1.19
0.58 0.51 0.69 0.80 0.76 0.66 0.61 0.55 0.51 0.51 0.55 0.50 0.46 0.47 0.49 0.50 0.46 0.43 0.41 0.40 0.39 0.40 0.45 0.51 0.57 0.62 0.65 0.65 0.68 0.72 0.69 0.68 0.71 0.77 0.85 0.88 0.88 0.89 0.89 0.93 1.04 1.11 1.17 1.18
0.62 0.57 0.64 0.70 0.61 0.50 0.48 0.47 0.48 0.45 0.41 0.38 0.36 0.37 0.43 0.45 0.43 0.43 0.44 0.43 0.43 0.44 0.47 0.52 0.59 0.63 0.65 0.62 0.63 0.63 0.63 0.63 0.67 0.68 0.73 0.77 0.83 0.88 0.92 0.93 1.01 1.13 1.18 1.30
0.57 0.64 0.75 0.78 0.60 0.62 0.60 0.51 0.45 0.43 0.41 0.40 0.37 0.34 0.33 0.37 0.42 0.39 0.40 0.40 0.42 0.48 0.49 0.51 0.53 0.59 0.66 0.65 0.62 0.61 0.61 0.63 0.70 0.73 0.72 0.76 0.83 0.87 0.90 0.92 0.98 1.08 1.14 1.20